Flag for Germany Weather past 2 weeks in Werl, North Rhine-Westphalia, Germany

Now
52 °F

Partly sunny.


Feels Like: 47 °F
Forecast: 45 / 51 °F
Wind: 15 mph from Southwest

Location: Dortmund / Wickede

Current Time: Mar 28, 2015 at 12:30:59 PM

Latest Report: Mar 28, 2015 at 11:50 AM


Visibility: N/A

Pressure: 30.04 "Hg

Humidity: 47%

Dew point: 32 °F

Location of WerlLocation

Historic Weather in Werl — Graph

°F

Werl temperature yesterday

Maximum temperature yesterday: 46 °F (at 2:20 PM)
Minimum temperature yesterday: 41 °F (at 5:20 AM)
Average temperature yesterday: 43 °F

Past Weeks' High & Low Weather Summary

 TemperatureHumidityPressure
High61 °F (Mar 17, 2:50 PM)93% (Mar 14, 7:20 PM)30.36 "Hg (Mar 14, 7:20 PM)
Low28 °F (Mar 23, 5:20 AM)39% (Mar 17, 3:20 PM)29.62 "Hg (Mar 25, 5:50 AM)
Average43 °F74%30.11 "Hg
* Reported Mar 13 11:20 AM — Mar 28 11:20 AM, Werl, Weather by CustomWeather, © 2015

Note: Actual official high and low records may vary slightly from our data, if they occured in-between our weather recording intervals... More about our weather records

Advertising

Werl weather history for previous 24 hours

 ConditionsComfort  
Time TempWeatherWind HumidityBarometerVisibility
11:20 AM
Sat, Mar 28
52 °FPassing clouds.15 mph50%30.04 "HgN/A
10:50 AM50 °FPassing clouds.12 mph54%30.07 "HgN/A
10:20 AM48 °FSunny.10 mph58%30.09 "Hg10 mi
9:50 AM46 °FPassing clouds.12 mph62%30.09 "HgN/A
9:20 AM45 °FPassing clouds.8 mph66%30.12 "HgN/A
8:50 AM43 °FSunny.12 mph76%30.12 "Hg10 mi
8:20 AM41 °FSunny.9 mph76%30.12 "Hg10 mi
7:50 AM39 °FSunny.9 mph81%30.12 "Hg10 mi
7:20 AM36 °FSunny.8 mph87%30.15 "Hg10 mi
6:50 AM34 °FPassing clouds.7 mph87%30.15 "HgN/A
6:20 AM34 °FPassing clouds.6 mph87%30.15 "HgN/A
5:50 AM34 °FPassing clouds.9 mph93%30.15 "HgN/A
5:20 AM34 °FOvercast.8 mph87%30.15 "HgN/A
10:50 PM
Fri, Mar 27
41 °FPassing clouds.6 mph76%30.18 "HgN/A
10:20 PM43 °FPassing clouds.6 mph71%30.18 "HgN/A
9:50 PM43 °FPassing clouds.7 mph71%30.18 "HgN/A
9:20 PM43 °FPassing clouds.6 mph71%30.18 "HgN/A
8:50 PM43 °FPassing clouds.8 mph71%30.18 "HgN/A
8:20 PM43 °FPassing clouds.7 mph71%30.15 "HgN/A
7:50 PM45 °FPassing clouds.7 mph66%30.15 "HgN/A
7:20 PM43 °FPassing clouds.7 mph76%30.12 "HgN/A
6:50 PM43 °FPartly sunny.9 mph76%30.12 "HgN/A
6:20 PM45 °FScattered showers. Broken clouds.7 mph71%30.12 "HgN/A
5:50 PM45 °FScattered showers. Partly sunny.9 mph71%30.09 "HgN/A
5:20 PM45 °FSprinkles. Partly sunny.14 mph71%30.09 "HgN/A
4:50 PM45 °FScattered showers. Partly sunny.10 mph71%30.07 "HgN/A
4:20 PM43 °FSprinkles. Partly sunny.15 mph76%30.07 "HgN/A
3:50 PM46 °FScattered showers. Partly sunny.12 mph66%30.04 "HgN/A
3:20 PM45 °FSprinkles. Partly sunny.13 mph76%30.04 "HgN/A
2:50 PM46 °FPartly sunny.14 mph66%30.04 "HgN/A
2:20 PM46 °FPartly sunny.12 mph66%30.01 "HgN/A
1:50 PM45 °FBroken clouds.15 mph76%30.01 "HgN/A
1:20 PM45 °FPartly sunny.16 mph71%30.01 "HgN/A
12:50 PM45 °FPartly sunny.14 mph81%30.01 "HgN/A
12:20 PM41 °FSprinkles. Broken clouds.13 mph87%30.01 "Hg6 mi
Weather by CustomWeather, © 2015

See weather overviewHow to use our weather pages